Minatare, NE

6:14 PM MST on February 05, 2016 (GMT -0700)
Heilig

Weather History for KBFF - April, 2013

Change the Weather History Date:

Monday, April 15, 2013

  Actual Average Record
Temperature  
Mean Temperature 30 °F 46 °F  
Max Temperature 35 °F 61 °F 87 °F (1985)
Min Temperature 24 °F 32 °F 15 °F (1961)
Degree Days  
Heating Degree Days 35 19  
Month to date heating degree days 380 312  
Since 1 July heating degree days 5718 6053  
Cooling Degree Days 0 0  
Month to date cooling degree days 0 0  
Year to date cooling degree days 0 0  
Moisture  
Dew Point 22 °F    
Average Humidity 70    
Maximum Humidity 92    
Minimum Humidity 47    
Precipitation  
Precipitation 0.07 in 0.07 in 1.31 in (1977)
Month to date precipitation 1.58 0.85  
Year to date precipitation 2.33 2.86  
Snow  
Snow 0.80 in 0.20 in 2.00 in (1947)
Month to date snowfall 13.0 3.4  
Since 1 July snowfall 35.9 39.6  
Snow Depth 0.00 in    
Sea Level Pressure  
Sea Level Pressure 29.99 in    
Wind  
Wind Speed 9 mph (SSE)    
Max Wind Speed 18 mph    
Max Gust Speed 22 mph    
Visibility 7 miles    
Events Snow    
T = Trace of Precipitation, MM = Missing Value Source: NWS Daily Summary

Daily Weather History Graph

Daily Weather History Graph

Search for Another Location

Airport or City:

Trip Planner

Search our weather history database for the weather conditions in past years. The results will help you decide how hot, cold, wet, or windy it might be!

Date:

Astronomy

Apr. 15, 2013 Rise Set
Actual Time 6:13 AM MDT 7:35 PM MDT
Civil Twilight 5:44 AM MDT 8:04 PM MDT
Nautical Twilight 5:09 AM MDT 8:39 PM MDT
Astronomical Twilight 4:33 AM MDT 9:16 PM MDT
Moon 9:39 AM MDT (4/15) No Moon Set
Length of Visible Light 14h 20m
Length of Day
13h 22m
Waxing Crescent, 25% of the Moon is Illuminated
Apr 15
Waxing Crescent
Apr 18
First Quarter
Apr 25
Full
May 2
Last Quarter
May 9
New

Hourly Weather History & Observations

Time (MDT) Temp. Windchill Dew Point Humidity Pressure Visibility Wind Dir Wind Speed Gust Speed Precip Events Conditions
12:53 AM 28.0 °F 20.0 °F 19.9 °F 72% 29.82 in 10.0 mi WNW 8.1 mph - N/A   Clear
1:53 AM 27.0 °F 15.2 °F 19.0 °F 72% 29.85 in 10.0 mi NW 15.0 mph - N/A   Clear
2:53 AM 27.0 °F 18.7 °F 19.9 °F 75% 29.87 in 10.0 mi NW 8.1 mph - N/A   Clear
3:53 AM 26.1 °F 15.0 °F 19.0 °F 75% 29.87 in 10.0 mi North 12.7 mph - N/A   Overcast
4:53 AM 24.1 °F 9.8 °F 17.1 °F 75% 29.86 in 10.0 mi North 19.6 mph - N/A   Mostly Cloudy
5:50 AM 24.8 °F 15.3 °F 17.6 °F 74% 29.84 in 10.0 mi NW 9.2 mph - N/A   Mostly Cloudy
5:53 AM 24.1 °F 13.1 °F 18.0 °F 77% 29.88 in 10.0 mi NW 11.5 mph - N/A   Overcast
6:53 AM 25.0 °F 15.5 °F 18.0 °F 75% 29.91 in 10.0 mi North 9.2 mph - N/A   Mostly Cloudy
7:53 AM 25.0 °F 13.1 °F 17.1 °F 72% 29.96 in 10.0 mi NW 13.8 mph - N/A   Overcast
8:53 AM 26.1 °F 15.6 °F 16.0 °F 66% 29.97 in 10.0 mi NW 11.5 mph - N/A   Overcast
9:53 AM 28.0 °F 18.1 °F 15.1 °F 58% 29.97 in 10.0 mi NW 11.5 mph - N/A   Overcast
10:53 AM 30.9 °F 22.2 °F 16.0 °F 54% 29.96 in 10.0 mi North 10.4 mph - N/A   Overcast
11:53 AM 34.0 °F 27.2 °F 16.0 °F 48% 29.95 in 10.0 mi NNW 8.1 mph - N/A   Overcast
12:53 PM 34.0 °F 28.8 °F 17.1 °F 50% 29.96 in 10.0 mi NNE 5.8 mph - N/A   Overcast
1:53 PM 34.0 °F 27.2 °F 18.0 °F 52% 29.97 in 10.0 mi North 8.1 mph - N/A   Overcast
2:53 PM 34.0 °F 28.8 °F 19.0 °F 54% 29.97 in 10.0 mi NNE 5.8 mph - N/A   Overcast
3:53 PM 34.0 °F 28.8 °F 19.9 °F 56% 29.99 in 8.0 mi NNE 5.8 mph - N/A   Overcast
4:53 PM 33.1 °F 28.7 °F 21.0 °F 61% 30.00 in 9.0 mi NE 4.6 mph - N/A   Overcast
5:24 PM 32.0 °F 25.6 °F 26.6 °F 80% 29.95 in 5.0 mi SSE 6.9 mph - 0.00 in Snow Light Snow
5:36 PM 32.0 °F 27.5 °F 26.6 °F 80% 29.94 in 4.0 mi SE 4.6 mph - 0.00 in Snow Light Snow
5:53 PM 32.0 °F 25.6 °F 25.0 °F 75% 30.04 in 9.0 mi SSE 6.9 mph - 0.00 in   Overcast
6:53 PM 32.0 °F 25.6 °F 25.0 °F 75% 30.06 in 10.0 mi SSE 6.9 mph - N/A   Overcast
7:53 PM 30.0 °F 24.1 °F 26.1 °F 85% 30.08 in 10.0 mi SSE 5.8 mph - N/A   Overcast
8:26 PM 30.2 °F 24.3 °F 26.6 °F 86% 30.00 in 10.0 mi South 5.8 mph - N/A   Overcast
8:53 PM 28.9 °F 21.9 °F 27.0 °F 92% 30.11 in 7.0 mi SSE 6.9 mph - 0.00 in Snow Light Snow
9:11 PM 28.4 °F 21.2 °F 26.6 °F 93% 30.02 in 2.5 mi SSE 6.9 mph - 0.00 in Snow Light Snow
9:19 PM 28.4 °F 20.4 °F 26.6 °F 93% 30.03 in 2.5 mi SSE 8.1 mph - 0.00 in Snow Light Snow
9:26 PM 28.4 °F 22.2 °F 26.6 °F 93% 30.03 in 5.0 mi SSE 5.8 mph - 0.00 in Snow Light Snow
9:53 PM 28.9 °F 21.9 °F 27.0 °F 92% 30.11 in 4.0 mi SSE 6.9 mph - 0.00 in Snow Light Snow
10:02 PM 28.4 °F 20.4 °F 26.6 °F 93% 30.03 in 2.5 mi South 8.1 mph - 0.00 in Snow Light Snow
10:28 PM 28.4 °F 21.2 °F 26.6 °F 93% 30.04 in 2.5 mi SSE 6.9 mph - 0.01 in Snow Light Snow
10:35 PM 28.4 °F 21.2 °F 26.6 °F 93% 30.04 in 3.0 mi South 6.9 mph - 0.01 in Snow Light Snow
10:53 PM 28.0 °F 21.7 °F 27.0 °F 96% 30.13 in 10.0 mi South 5.8 mph - 0.01 in   Overcast
11:09 PM 28.4 °F 20.4 °F 26.6 °F 93% 30.07 in 2.5 mi South 8.1 mph - 0.00 in Snow Light Snow
11:17 PM 28.4 °F 19.7 °F 26.6 °F 93% 30.07 in 1.5 mi South 9.2 mph - 0.00 in Snow Light Snow
11:27 PM 28.4 °F 22.2 °F 26.6 °F 93% 30.06 in 3.0 mi South 5.8 mph - 0.00 in Snow Light Snow
11:44 PM 28.4 °F 24.6 °F 26.6 °F 93% 30.05 in 2.5 mi SSE 3.5 mph - 0.01 in Snow Light Snow
11:53 PM 28.0 °F 24.2 °F 26.1 °F 92% 30.12 in 2.5 mi SSE 3.5 mph - 0.01 in Snow Light Snow